Regional Weather Roundup
Issued by NWS Upton, NY

Current Version | Previous Version | Text Only | Print | Product List | Glossary On
Versions: 1 2 3 4 5 6 7 8 9 10 11 12 13 14 15 16 17 18 19 20 21 22 23 24 25 26 27 28 29 30 31 32 33 34 35 36 37 38 39 40 41 42 43 44 45 46 47 48 49
000 ASUS41 KOKX 261605 RWROKX REGIONAL WEATHER ROUNDUP NATIONAL WEATHER SERVICE NEW YORK NY 1100 AM EST MON JAN 26 2015 NOTE: "FAIR" INDICATES FEW OR NO CLOUDS BELOW 12,000 FEET WITH NO SIGNIFICANT WEATHER AND/OR OBSTRUCTIONS TO VISIBILITY. NYZ071-072-176-178-NJZ106-104-261700- NEW YORK CITY METRO AREA CITY SKY/WX TMP DP RH WIND PRES REMARKS CENTRAL PARK LGT SNOW 24 16 71 NE15G22 30.00F WCI 11 LAGUARDIA APRT LGT SNOW 24 19 81 NE23G31 29.99F VSB 1 WCI 9 KENNEDY INTL LGT SNOW 26 19 74 NE18G28 29.99F WCI 13 NEWARK/LIBERTY LGT SNOW 24 19 81 NE18 29.99S WCI 10 BRNX BOT. GARD N/A N/A N/A N/A E6 30.01R TETERBORO LGT SNOW 22 15 75 NE10G18 29.99F FOG WCI 11 $$ NYZ177-179-078>081-261700- LONG ISLAND NEW YORK CITY SKY/WX TMP DP RH WIND PRES REMARKS FARMINGDALE LGT SNOW 24 18 77 NE16 29.98F WCI 11 ISLIP LGT SNOW 24 18 77 NE21 29.98F WCI 9 SHIRLEY LGT SNOW 24 17 74 NE8G18 30.01F WCI 15 WESTHAMPTON MIX PCPN 25 18 74 NE17G25 30.01F WCI 12 MONTAUK POINT N/A 26 20 77 NE9G22 30.04F WCI 17 $$ NYZ052-065-067-261700- HUDSON VALLEY CITY SKY/WX TMP DP RH WIND PRES REMARKS WHITE PLAINS LGT SNOW 19 11 70 NE15 29.97F FOG WCI 5 NEWBURGH LGT SNOW 16 9 73 NE12 30.04S FOG WCI 3 MONTGOMERY LGT SNOW 16 8 71 NE14 30.02F WCI 2 POUGHKEEPSIE CLOUDY 18 5 57 N10 30.06S WCI 6 ALBANY CLOUDY 13 -1 54 N6 30.12S WCI 4 $$ NJZ001-105-106-008-010-013-015-019>022-104-261700- NEW JERSEY CITY SKY/WX TMP DP RH WIND PRES REMARKS NEWARK/LIBERTY LGT SNOW 24 19 81 NE18 29.99S WCI 10 TETERBORO LGT SNOW 22 15 75 NE10G18 29.99F FOG WCI 11 CALDWELL LGT SNOW 20 15 81 NE15 29.99F WCI 6 MORRISTOWN LGT SNOW 21 18 86 NE12G20 29.99F WCI 9 SOMERVILLE CLOUDY 24 16 71 NE13G22 29.94F HAZE WCI 12 SUSSEX LGT SNOW 15 8 73 NE14 29.98F WCI 0 ANDOVER N/A 16 11 80 VRB5 29.95F WCI 9 TRENTON LGT SNOW 26 20 77 NE13G23 29.90F WCI 15 MILLVILLE CLOUDY 35 32 88 NE14G22 29.81S WCI 26 ATLANTIC CITY MIX PCPN 35 33 92 NE20G29 29.80F WCI 24 WRIGHTSTOWN LGT SNOW 29 26 90 NE17 29.86F FOG WCI 17 TOMS RIVER CLOUDY 32 30 93 NE16 29.88F VSB 1 WCI 21 BELMAR CLOUDY 28 21 74 NE16G25 29.90 WCI 17 $$ PAZ047>061-062-071-261700- EASTERN PENNSYLVANIA CITY SKY/WX TMP DP RH WIND PRES REMARKS PHILADELPHIA LGT SNOW 29 24 82 NE16 29.87F WCI 17 ALLENTOWN LGT SNOW 19 12 73 NE16 29.92F WCI 5 SCRANTON LGT SNOW 21 12 68 E13G20 29.88F WCI 9 $$ CTZ002-004>006-009-010-012-RIZ004-006-007-MAZ004-011-015-261700- SOUTHERN NEW ENGLAND IN CT CITY SKY/WX TMP DP RH WIND PRES REMARKS BRADLEY INTL CLOUDY 15 0 51 N13 30.10F WCI 1 HARTFORD CLOUDY 17 3 54 N8 30.12R WCI 7 DANBURY LGT SNOW 17 5 59 NE13 30.03F WCI 4 WTRBRY/OXFORD LGT SNOW 16 0 48 NE9G17 30.01F FOG WCI 4 BRIDGEPORT LGT SNOW 19 12 74 NE17G24 30.04F WCI 4 MERIDEN LGT SNOW 18 8 65 N8 30.09S WCI 8 NEW HAVEN LGT SNOW 19 10 68 N14 30.05F VSB 3/4 WCI 6 CHESTER LGT SNOW 19 16 86 NE8 30.04F WCI 9 GROTON LGT SNOW 21 17 84 NE12 30.06F FOG WCI 9 WILLIMANTIC LGT SNOW 20 10 65 NE7 30.09R WCI 11 IN RI CITY SKY/WX TMP DP RH WIND PRES REMARKS PROVIDENCE FLURRIES 19 9 65 N13 30.10S WCI 6 BLOCK ISLAND CLOUDY 25 18 74 NE15G23 30.02F WCI 12 WESTERLY LGT SNOW 20 15 81 N12G20 30.07S WCI 8 IN MA CITY SKY/WX TMP DP RH WIND PRES REMARKS BOSTON FLURRIES 20 13 74 N16 30.13F WCI 6 WORCESTER CLOUDY 13 4 67 NE12 30.04F WCI -1 WESTFIELD CLOUDY 14 -1 51 N16 30.10F WCI -2 PROVINCETOWN CLOUDY 30 18 59 E17 30.09F WCI 18 NANTUCKET LGT SNOW 33 24 69 E15G22 30.05F WCI 23 $$ ANZ330-335-338-340-345-350-353-355-261700- COASTAL MARINE OBSERVATIONS STATION/POSITION TIME SKY/WX TEMP WIND PRES VSBY WAVE AIR SEA DIR/SP/G HT/PER (UTC) (F) (DEG/KT/KT) (MB) (MI) (FT/S) NY HARB ENTRANCE 1600 30 43 50/ 25/ 31 1012.7 7/ 6 4S FIRE IS 1600 38 N/A 6/ 6 20S FIRE ISLAND 1500 41 1013.9 7/ 6 23SW MTP 1600 N/A 7/ 6 HUDSON CANYON NOT AVBL EXECUTION ROCKS 1600 24 35 50/ 23/ 31 N/A WESTERN LI SOUND 1600 22 50/ 19/ 27 N/A 4/ 5 CENTRAL LI SOUND 1500 22 36 50/ 16/ 19 N/A 3/ 4 EASTERN LI SOUND NOT AVBL ROBBINS REEF 1600 23 40/ 26/ 31 1013.7 $$ >>>>>>>>>>>>>>>>>>>>>>>>>>>> KEY <<<<<<<<<<<<<<<<<<<<<<<<<<< > < > SKY/WX - SKY CONDITION/PRESENT WEATHER < > TMP - TEMPERATURE IN FAHRENHEIT < > DP - DEWPOINT IN FAHRENHEIT < > RH - RELATIVE HUMIDITY IN PERCENT < > WIND - DIRECTION AND SPEED IN MPH < > PRES - MEAN SEA LEVEL PRESSURE IN INCHES OF HG < > WCI - WIND CHILL INDEX < > VSB - VISIBILITY IN MILES < > HX - HEAT INDEX < > TC - TEMPERATURE IN CELSIUS < > VRB - VARIABLE WIND DIRECTION < > < >>>>>>>>>>>>>>>>>>>>>>>>>>>> KEY <<<<<<<<<<<<<<<<<<<<<<<<<<<

USA.gov is the U.S. government's official web portal to all federal, state and local government web resources and services.